Regional Weather Roundup
Issued by NWS

Home | Current Version | Previous Version | Text Only | Print | Product List | Glossary Off
Versions: 1 2 3 4 5 6 7 8 9 10 11 12 13 14 15 16 17 18 19 20 21 22 23 24 25 26 27 28 29 30 31 32 33 34 35 36 37 38 39 40 41 42 43 44 45 46 47 48 49 50

000
ASUS45 KABQ 290210
RWRNM
NEW MEXICO REGIONAL WEATHER ROUNDUP
NATIONAL WEATHER SERVICE ALBUQUERQUE NM
800 PM MDT SUN MAY 28 2017

NOTE: "FAIR" MEANS FEW OR NO CLOUDS BELOW 12,000 FEET AGL WITH NO
       SIGNIFICANT WEATHER OR OBSTRUCTIONS TO VISION.

      THIS PRODUCT IS RELEASED AS TWO VERSIONS.  ONE VERSION NEAR
      THE TOP OF THE HOUR CONTAINING PRELIMINARY DATA FROM ALBUQUERQUE
      AND OTHER STATIONS.  A FINAL VERSION WITH ADDITIONAL DATA IS
      ISSUED ABOUT 10 MINUTES AFTER THE HOUR.

NMZ501-503-504-510>518-290300-
NORTHWEST PLATEAU/NORTHCENTRAL MOUNTAINS

CITY           SKY/WX    TMP DP  RH WIND       PRES   REMARKS
FARMINGTON     FAIR      73  10   9 NW8       30.13S
LOS ALAMOS     FAIR      64  25  22 CALM      30.26S
SANTA FE       FAIR      69  26  20 N6        30.20R
TAOS           FAIR      63  21  20 SW9       30.26R
ANGEL FIRE     FAIR      54  25  33 S6        30.34R

$$
NMZ402-403-502-505>509-290300-
WESTCENTRAL MOUNTAINS/SOUTHWEST MOUNTAINS

CITY           SKY/WX    TMP DP  RH WIND       PRES   REMARKS
GALLUP         FAIR      71  21  15 N14G20    30.18R
GRANTS         MOCLDY    69  24  18 S7        30.22R
SILVER CITY    FAIR      75  20  12 SE6       30.11R

$$
NMZ407-409-411-412-290300-
SOUTHERN DESERTS

CITY           SKY/WX    TMP DP  RH WIND       PRES   REMARKS
DEMING         FAIR      83  25  12 E8        30.03R
LAS CRUCES     FAIR      81  28  14 E7        30.07R
HOLLOMAN AFB   FAIR      81  37  20 S18G26    30.06R
ALAMOGORDO     FAIR      79  36  21 S13       30.05R
T OR C         FAIR      81  23  11 SE5       30.06R

$$
NMZ519>523-290300-
CENTRAL VALLEYS/CENTRAL HIGHLANDS

CITY           SKY/WX    TMP DP  RH WIND       PRES   REMARKS
ALBUQUERQUE    FAIR      76  23  14 SW5       30.14R
DOUBLE EAGLE   PTCLDY    72  30  21 VRB7      30.18R
MORIARTY ARPT  FAIR      67  30  25 SE6       30.22R
CLINES CORNERS FAIR      61  27  27 S13       30.27R
BELEN          MOCLDY    74  29  19 SW23G36   30.15R
SOCORRO        RAIN      77  30  18 NW23G43   30.12R

$$
NMZ524>526-539-540-290300-
SOUTHCENTRAL MOUNTAINS

CITY           SKY/WX    TMP DP  RH WIND       PRES   REMARKS
RUIDOSO        FAIR      63  32  31 SE9       30.29R

$$
NMZ527>531-290300-
NORTHEAST HIGHLANDS/NORTHEAST PLAINS

CITY           SKY/WX    TMP DP  RH WIND       PRES   REMARKS
LAS VEGAS      FAIR      54  37  52 E8        30.29R
RATON          FAIR      62  31  31 E7        30.23R
CLAYTON        FAIR      60  40  47 E7        30.20S

$$
NMZ532>537-290300-
EASTCENTRAL PLAINS

CITY           SKY/WX    TMP DP  RH WIND       PRES   REMARKS
SANTA ROSA     FAIR      70  31  23 E9        30.16R
TUCUMCARI      FAIR      68  35  29 NE7       30.13R
CANNON AFB     FAIR      70  33  25 E8        30.17R
CLOVIS AIRPORT FAIR      68  34  28 NE9       30.16R

$$
NMZ028-029-538-290300-
SOUTHEAST PLAINS

CITY           SKY/WX    TMP DP  RH WIND       PRES   REMARKS
ROSWELL        FAIR      80  38  22 E7        30.09R
ARTESIA        FAIR      79  39  24 E6        30.08R
CARLSBAD       FAIR      80  42  25 E8        30.05R
HOBBS          FAIR      75  37  25 NE7       30.10R


$$




USA.gov is the U.S. government's official web portal to all federal, state and local government web resources and services.